This is the latest recevied weather packets stored in our database for station/object IT9CNT. If no packets are shown the sender has not sent any weather packets the latest 10 day(s).
| Time | Temp. | Humidity | Pressure | Rain* | Wind** | Luminosity | Snow |
|---|---|---|---|---|---|---|---|
| 1787599143 | 26.67° C | 99% | 1013.4 hPa | 0 mm | - | - | - |
| 1787599083 | 26.67° C | 99% | 1013.2 hPa | 0 mm | - | - | - |
| 1787599023 | 26.67° C | 99% | 1013.3 hPa | 0 mm | - | - | - |
| 1787598963 | 26.67° C | 99% | 1013.5 hPa | 0 mm | - | - | - |
| 1787598843 | 26.67° C | 99% | 1013.4 hPa | 0 mm | - | - | - |
| 1787598783 | 26.67° C | 99% | 1013.3 hPa | 0 mm | - | - | - |
| 1787598723 | 26.67° C | 99% | 1013.5 hPa | 0 mm | - | - | - |
| 1787598663 | 26.67° C | 99% | 1013.2 hPa | 0 mm | - | - | - |
| 1787598603 | 26.67° C | 99% | 1013.2 hPa | 0.25 mm | - | - | - |
| 1787598543 | 26.67° C | 99% | 1013.2 hPa | 0.25 mm | - | - | - |
| 1787598483 | 26.67° C | 99% | 1013.2 hPa | 1.02 mm | - | - | - |
| 1787598423 | 26.67° C | 99% | 1013.4 hPa | 1.52 mm | - | - | - |
| 1787598363 | 26.67° C | 99% | 1013.4 hPa | 1.52 mm | - | - | - |
| 1787598303 | 26.67° C | 99% | 1013.5 hPa | 1.78 mm | - | - | - |
| 1787598243 | 26.67° C | 98% | 1013.4 hPa | 2.79 mm | - | - | - |
| 1787598183 | 26.67° C | 98% | 1013.5 hPa | 2.79 mm | - | - | - |
| 1787598123 | 26.67° C | 98% | 1013.5 hPa | 2.79 mm | - | - | - |
| 1787598063 | 26.67° C | 97% | 1013.5 hPa | 3.05 mm | - | - | - |
| 1787598003 | 26.67° C | 97% | 1013.5 hPa | 3.3 mm | - | - | - |
| 1787597943 | 26.67° C | 97% | 1013.5 hPa | 3.56 mm | - | - | - |
| 1787597883 | 26.67° C | 97% | 1013.4 hPa | 4.32 mm | - | - | - |
| 1787597823 | 26.67° C | 97% | 1013.4 hPa | 4.32 mm | - | - | - |
| 1787597763 | 26.67° C | 97% | 1013.4 hPa | 5.08 mm | - | - | - |
| 1787597703 | 26.67° C | 97% | 1013.5 hPa | 5.08 mm | - | - | - |
| 1787597643 | 26.67° C | 96% | 1013.3 hPa | 5.33 mm | - | - | - |
* Rain latest hour (hover to see other rain measurements)
** Current wind speed in m/s (hover to see current wind gust speed)